Temp_Advection
nan nan nan nan nan nan nan nan nan nan nan nan nan nan nan nan nan nan nan nan nan nan nan nan nan nan nan nan nan nan nan nan nan nan nan nan nan nan nan nan nan nan nan
nan -0 -0 -0 0 0 -0 -0 -0 -0 -0 0 0 -0 -0 0 0 -0 -0 0 -0 -0 -0 -0 -0 -0 -0 -0 -0 -0 -0 -0 -0 -0 -0 -0 -0 -0 -0 -0 -0 -0 nan
nan -0 -1 -0 -0 0 0 -0 -0 -0 -0 -0 0 0 0 -0 0 -0 -0 -0 -0 -0 -0 -0 -0 -0 -0 -0 -0 -0 -0 -0 -0 -0 -0 0 -0 -0 -0 -0 -0 -0 nan
nan -0 -1 -0 -0 -0 -0 -0 -0 -0 -0 -0 -0 -0 0 0 0 0 0 0 -0 -0 -0 -0 -0 -0 -0 -0 -0 -0 -0 -0 -0 -0 0 0 0 0 -0 -0 -0 -0 nan
nan 0 0 -0 -0 -0 -0 -0 -0 -0 -0 -0 -0 -0 -0 0 0 0 0 0 0 0 -0 -0 -0 -0 -0 -0 -0 -0 -0 -0 -0 -0 0 0 0 0 0 0 0 -0 nan
nan 1 0 0 0 0 0 0 0 -0 -0 0 -0 -0 -0 -0 0 0 0 -0 -0 0 0 -0 0 0 -0 -0 -0 -0 -0 -0 -0 -0 0 -0 -0 -0 0 0 0 0 nan
nan 1 0 0 0 0 0 0 0 0 -0 -0 0 0 0 0 0 0 0 0 0 0 0 0 0 0 0 0 0 -0 -0 -0 -0 -0 -0 -0 -0 -0 -0 -0 0 0 nan
nan 0 0 0 0 0 0 0 0 0 0 0 0 0 0 0 0 0 0 0 0 0 0 0 0 0 0 0 0 0 -0 -0 -0 -0 -0 0 -0 -0 -0 -0 0 0 nan
nan -0 0 0 0 0 0 0 0 0 0 0 0 0 0 0 0 0 0 -0 0 0 0 0 0 0 0 0 0 0 0 0 -0 -0 0 -0 -0 -0 0 -0 -0 0 nan
nan 0 0 0 0 0 0 0 0 0 0 0 0 0 0 0 0 0 0 0 0 0 0 0 0 0 0 0 0 0 0 0 0 0 -0 -0 0 -0 0 -0 -0 0 nan
nan 0 0 -0 -0 0 0 0 0 0 0 0 0 0 0 0 0 0 0 0 0 0 0 0 0 0 0 0 0 0 0 0 0 0 0 0 -0 -0 -0 -0 -0 0 nan
nan -0 -0 -0 -0 0 0 0 0 0 0 0 0 0 -0 0 0 0 0 0 0 0 0 0 0 0 -0 0 0 0 0 0 0 0 0 0 -0 -0 0 -0 -0 0 nan
nan -0 -0 -0 -0 0 0 0 0 0 0 0 0 0 0 0 0 0 0 0 0 0 0 0 0 0 0 0 0 0 0 0 -0 0 0 0 -0 -0 0 -0 -0 0 nan
nan -0 0 -0 0 0 0 0 0 0 0 0 0 0 0 0 0 0 0 0 0 0 0 -0 -0 0 0 0 0 0 0 0 0 0 0 0 -0 -0 0 -0 -0 -0 nan
nan -1 -0 0 -0 0 0 0 0 0 0 0 0 0 0 0 0 0 0 0 0 0 0 -0 -0 0 0 0 0 -0 0 0 0 0 -0 -0 -0 -0 0 0 -0 -0 nan
nan -0 -0 -1 0 0 0 0 0 0 1 1 0 0 -0 0 0 0 0 1 0 0 0 0 -0 -0 0 0 0 -0 0 0 0 -0 -0 0 0 0 -0 -0 -0 -0 nan
nan -0 -0 -0 -0 0 1 0 1 1 1 -0 -0 0 0 0 0 0 0 0 0 0 0 0 0 0 0 0 0 -0 0 0 -0 -0 -0 0 0 0 0 0 -0 -0 nan
nan -0 -0 0 -0 -0 1 1 1 1 0 -0 -0 0 0 0 0 0 -0 -0 0 1 0 0 0 -0 -0 0 -0 -0 -0 0 0 0 0 0 0 0 -0 0 -0 -0 nan
nan 0 0 -0 -0 0 1 1 2 1 0 0 0 0 0 0 0 0 0 -0 1 0 0 0 0 0 0 0 0 -0 -0 -0 -0 0 0 0 -0 -0 0 0 0 -0 nan
nan 0 1 0 1 1 2 2 1 0 1 0 0 0 0 0 0 0 0 0 1 0 0 0 0 0 0 0 0 0 0 -0 -0 0 0 -0 -0 0 0 0 0 0 nan
nan 1 1 1 1 1 1 0 0 -0 1 1 1 0 -0 0 0 0 0 0 0 -0 0 1 1 0 0 0 0 0 -0 -0 -0 0 0 0 -0 0 1 0 0 0 nan
nan 1 1 0 1 0 0 1 1 1 1 1 2 2 1 0 -0 0 0 0 0 0 0 1 1 0 -0 0 0 0 0 -0 -0 0 -0 0 1 1 -0 0 0 0 nan
nan 0 1 1 1 1 1 2 1 1 1 1 0 0 0 0 -0 -0 0 0 0 0 -0 0 1 1 0 -0 0 0 0 -0 -0 -0 0 1 0 -0 -0 1 2 1 nan
nan 0 0 1 1 1 2 1 0 0 1 1 1 1 0 -0 -0 -0 -0 0 0 0 1 0 0 1 1 1 1 -0 -0 -0 0 0 -0 1 2 0 -2 0 1 0 nan
nan 0 0 0 1 1 1 1 1 1 1 1 1 0 0 -0 -0 -0 0 1 0 0 0 0 1 1 1 0 0 1 0 -0 1 2 1 -0 -1 -3 -2 1 1 0 nan
nan nan nan nan nan nan nan nan nan nan nan nan nan nan nan nan nan nan nan nan nan nan nan nan nan nan nan nan nan nan nan nan nan nan nan nan nan nan nan nan nan nan nan
Wind_Speed
23 22 24 24 23 20 18 17 16 14 14 15 16 16 16 16 16 15 15 14 14 13 13 13 13 13 13 12 13 14 14 16 18 20 19 17 15 14 14 14 11 11 11
22 23 24 24 22 19 18 16 14 13 13 13 13 14 14 13 13 13 13 12 12 12 11 11 12 12 11 11 13 13 16 16 16 17 16 16 13 11 11 11 10 10 9
17 24 24 23 22 19 17 16 14 13 12 12 12 12 12 11 11 10 10 10 10 10 9 9 9 10 9 10 11 13 15 14 12 10 10 10 11 10 10 9 10 9 9
14 22 24 23 22 19 17 15 15 13 12 11 12 12 11 10 10 10 9 8 8 7 8 8 7 7 7 8 10 12 12 12 11 9 3 7 7 10 9 10 10 10 9
15 22 23 23 21 20 17 16 15 14 12 11 11 11 10 10 8 8 8 8 7 7 6 6 6 5 5 5 7 10 12 12 12 8 3 4 7 11 9 9 10 9 8
16 22 23 22 21 19 18 16 15 15 14 12 11 11 10 9 9 8 7 7 7 7 7 6 5 5 4 4 5 7 10 12 10 8 2 5 10 7 12 9 9 7 7
14 22 24 22 20 19 17 16 14 13 13 12 11 10 10 9 9 8 8 7 7 7 6 6 6 5 4 3 3 6 9 11 9 8 7 9 11 10 11 10 8 7 7
11 24 24 22 20 18 17 15 14 13 12 12 12 12 11 11 10 9 9 9 9 8 8 7 7 6 6 5 4 4 7 10 13 8 6 2 10 12 12 11 8 6 5
12 23 24 22 21 19 18 16 16 15 13 12 12 12 12 11 11 11 11 11 10 9 9 9 8 8 7 7 6 6 7 8 15 10 9 10 13 15 14 12 9 7 5
14 17 22 24 23 22 21 20 19 17 16 14 14 14 14 13 13 13 13 12 12 11 11 10 10 10 10 9 9 9 9 9 9 13 16 14 12 16 16 15 12 9 7
16 16 19 24 26 25 23 22 20 19 17 17 17 17 17 16 15 15 14 14 14 13 13 13 13 12 12 12 11 11 11 9 9 12 16 14 15 17 17 18 15 12 9
19 20 20 23 28 27 26 24 24 23 22 21 21 19 18 17 16 16 16 16 16 16 16 16 16 16 15 14 13 13 11 6 11 15 17 14 15 20 20 20 17 14 12
14 17 19 21 27 29 28 27 26 25 24 24 23 22 21 20 19 19 19 19 20 19 19 19 19 18 17 16 16 15 13 9 9 14 16 13 17 21 22 20 20 17 15
22 17 17 18 23 30 30 31 29 29 28 28 27 25 24 24 23 23 22 21 21 20 19 21 22 21 20 19 18 19 17 13 11 14 15 18 22 25 23 22 22 21 18
29 25 19 17 21 23 28 31 30 29 28 26 28 29 28 27 27 25 25 24 22 21 19 17 19 21 21 19 15 15 19 18 18 19 20 22 20 23 25 24 23 24 22
35 31 27 21 18 22 24 28 30 28 26 24 22 22 26 28 28 29 28 27 26 23 22 20 19 18 17 19 18 18 18 17 23 28 29 30 26 23 24 24 25 24 25
42 38 34 29 24 22 26 25 28 29 27 26 25 23 23 22 22 22 27 28 28 26 25 24 23 22 23 20 23 22 23 24 23 22 22 27 30 31 31 28 26 25 24
35 43 39 36 32 26 25 28 28 32 33 32 29 27 27 27 25 25 24 28 28 26 27 29 29 28 26 26 28 29 27 29 29 27 25 25 29 30 30 30 29 27 25
38 37 43 42 37 35 31 27 30 32 36 36 37 32 30 30 31 30 31 30 30 31 30 31 33 35 36 36 37 35 33 35 34 33 32 30 30 31 33 33 33 30 30
26 36 40 46 42 40 36 33 31 31 35 38 36 38 35 34 34 34 34 33 32 35 36 35 36 35 38 38 36 37 36 35 36 33 37 38 35 34 35 36 35 37 35
25 32 29 43 47 44 40 36 34 32 34 38 42 36 37 41 36 36 37 36 34 36 39 40 37 38 40 40 34 39 40 39 40 43 44 37 37 38 38 38 39 41 41
14 19 21 31 46 43 39 35 34 30 30 31 34 40 39 36 37 40 39 40 39 37 38 39 39 41 43 44 44 38 38 41 47 48 46 45 48 41 43 44 45 48 47
9 7 16 21 35 37 36 34 32 26 24 26 30 30 34 35 36 38 41 42 42 42 41 39 41 42 46 47 47 44 25 33 33 34 40 49 48 49 46 48 45 44 43
14 11 12 28 30 34 35 32 29 25 22 22 22 24 28 29 33 36 38 41 42 44 44 42 40 40 42 50 46 49 49 44 30 24 28 30 34 35 47 44 43 41 37
20 22 20 15 20 33 34 28 23 20 19 17 18 21 23 27 30 32 35 41 42 46 48 45 46 42 44 47 49 50 46 51 54 41 25 13 18 44 40 39 40 40 40
7 11 16 22 20 14 26 22 16 16 17 16 18 21 22 24 26 29 29 32 38 44 43 42 42 40 41 46 50 52 52 44 40 36 26 53 41 37 35 36 36 33 34
Wind_Direction
173 165 157 155 145 142 135 130 128 128 129 129 127 125 124 123 120 117 115 113 113 113 112 112 111 112 111 107 100 94 88 83 82 75 64 56 58 57 56 59 64 67 68
165 167 161 157 151 149 143 138 137 140 139 136 135 133 130 129 124 123 119 117 118 117 115 114 114 110 108 103 101 95 91 86 81 74 71 55 43 56 62 63 61 62 68
169 168 164 159 156 155 150 146 146 150 151 147 144 141 139 137 132 127 123 123 124 124 121 119 116 116 115 110 108 105 102 93 79 61 61 66 42 35 53 58 63 59 55
171 174 168 163 161 159 157 155 154 157 159 158 157 154 150 149 147 144 139 134 131 131 131 131 128 126 124 116 112 113 119 107 91 67 68 47 24 15 42 49 53 52 49
189 182 172 165 163 161 161 161 162 161 165 167 166 166 164 162 163 161 155 152 151 153 151 149 147 142 137 127 121 125 133 124 110 90 98 13 335 351 19 39 44 44 40
188 182 174 166 163 164 163 165 168 167 170 174 176 179 177 176 179 179 177 176 176 177 175 173 173 165 164 150 140 137 145 148 136 125 286 275 317 328 356 12 27 31 29
189 187 179 172 170 170 168 169 172 176 176 180 182 187 189 190 191 193 196 198 198 201 200 199 196 196 193 187 179 164 161 158 146 153 215 228 274 306 323 339 356 7 15
210 189 182 177 177 177 177 177 180 185 186 188 193 196 199 201 204 206 211 214 213 214 213 216 219 220 223 216 214 205 186 186 171 167 196 231 268 285 303 311 326 342 357
210 184 187 186 185 187 187 189 191 195 196 200 203 205 208 211 215 217 221 225 227 227 229 229 237 244 242 241 241 235 225 204 191 184 218 224 262 273 282 293 300 310 320
206 185 193 197 196 197 198 199 200 204 204 209 212 214 217 218 222 226 230 233 236 238 239 243 243 244 252 259 256 251 243 232 215 207 210 231 250 265 277 283 288 296 308
215 206 203 205 208 206 207 209 212 214 215 217 219 221 222 226 228 233 236 239 242 246 247 248 249 252 255 254 257 259 257 251 236 214 216 239 252 267 274 280 275 281 289
215 214 215 214 213 214 216 216 218 220 221 224 227 229 232 236 238 241 244 247 248 250 251 252 252 253 254 259 262 263 263 260 256 213 220 236 255 266 271 277 272 272 276
228 234 225 219 215 217 222 223 226 230 232 234 235 235 238 240 243 244 245 246 249 248 252 257 258 259 261 262 262 261 249 255 275 225 247 256 263 266 271 276 270 268 271
223 243 241 225 221 220 220 227 229 234 237 240 242 243 241 243 244 247 249 252 252 255 258 261 261 261 262 263 264 262 246 241 241 235 255 258 258 263 269 275 272 268 267
219 225 235 238 229 223 222 229 231 233 237 244 247 247 248 247 248 248 250 251 256 258 260 267 266 261 262 255 258 256 253 249 244 241 249 251 261 262 267 271 275 267 266
219 224 225 228 239 233 232 226 234 233 237 239 244 248 248 251 248 248 246 250 253 257 258 264 269 267 271 263 260 266 267 268 258 250 250 246 251 256 261 263 269 271 268
219 220 221 226 227 238 233 231 228 235 241 246 249 251 251 250 249 247 246 244 248 256 256 258 263 267 268 268 262 267 270 268 267 263 258 249 248 253 259 262 263 269 273
224 218 219 223 223 229 239 232 229 226 231 243 248 253 257 258 258 253 250 249 249 246 247 247 252 254 254 254 254 256 256 259 265 265 263 260 252 252 255 256 260 269 272
231 226 219 218 224 225 229 233 229 229 227 226 240 246 250 255 258 258 255 256 254 251 245 244 245 244 246 248 250 255 252 254 260 261 260 254 251 250 253 255 257 260 262
241 228 232 219 224 226 225 226 229 229 232 233 231 235 238 248 252 254 257 256 254 252 251 248 247 247 250 254 254 256 254 248 252 254 258 257 256 250 252 256 258 260 264
248 247 229 220 218 220 221 225 228 235 236 232 234 237 238 242 250 255 258 259 254 253 253 251 251 251 252 254 256 258 256 254 253 254 254 256 252 251 251 251 257 261 263
233 237 219 227 222 219 225 230 234 243 251 252 244 240 241 243 248 252 257 263 262 258 260 256 251 252 253 252 250 253 260 263 255 254 253 252 252 250 253 254 255 259 260
199 198 212 221 221 222 226 229 233 239 248 255 255 252 248 249 250 252 256 260 264 267 265 261 259 254 255 258 252 243 247 245 254 261 257 255 251 252 253 258 258 257 258
206 188 176 214 222 225 226 228 234 249 265 273 263 259 259 259 258 259 261 263 264 266 268 269 268 260 256 259 258 254 249 250 250 254 259 254 253 271 262 259 257 262 268
233 227 218 205 205 225 223 230 238 250 271 277 270 267 263 263 266 270 270 262 261 264 264 269 269 266 262 261 257 256 253 250 254 251 259 321 336 275 260 264 260 258 262
196 213 226 225 205 193 216 227 240 260 261 251 256 263 264 265 267 272 277 276 269 265 267 273 271 273 273 266 264 263 256 250 252 244 269 288 267 251 265 268 266 266 274
Height
1528 1530 1532 1534 1535 1538 1540 1541 1543 1546 1548 1550 1551 1553 1553 1554 1555 1556 1557 1558 1559 1560 1561 1561 1562 1562 1563 1563 1563 1563 1563 1562 1561 1561 1560 1561 1559 1558 1558 1557 1557 1556 1556
1523 1528 1531 1533 1535 1537 1539 1541 1544 1546 1549 1550 1552 1553 1554 1555 1556 1557 1558 1559 1559 1560 1562 1562 1563 1563 1563 1564 1564 1564 1564 1564 1563 1563 1563 1563 1563 1562 1561 1560 1560 1559 1558
1523 1526 1530 1532 1534 1537 1539 1541 1544 1546 1549 1551 1552 1554 1555 1556 1557 1558 1558 1559 1560 1561 1562 1563 1563 1564 1564 1564 1565 1565 1565 1565 1564 1564 1564 1564 1564 1564 1563 1562 1561 1561 1560
1523 1525 1529 1531 1533 1536 1538 1540 1543 1545 1548 1550 1552 1553 1554 1555 1557 1557 1559 1559 1560 1561 1562 1563 1563 1564 1564 1565 1565 1565 1565 1566 1565 1565 1565 1565 1565 1566 1564 1562 1561 1560 1559
1523 1525 1528 1530 1533 1535 1537 1540 1542 1545 1547 1549 1551 1552 1554 1555 1557 1557 1558 1559 1560 1561 1562 1562 1563 1563 1564 1564 1565 1566 1566 1566 1566 1566 1566 1565 1565 1565 1564 1562 1561 1560 1559
1524 1526 1528 1531 1533 1535 1537 1539 1542 1544 1546 1548 1550 1552 1553 1554 1556 1557 1558 1559 1559 1560 1560 1561 1562 1562 1563 1563 1564 1565 1565 1566 1566 1566 1564 1564 1565 1565 1563 1562 1561 1560 1559
1525 1527 1529 1531 1533 1534 1537 1539 1542 1543 1545 1547 1549 1551 1552 1553 1555 1556 1557 1557 1558 1559 1559 1560 1560 1560 1561 1562 1563 1563 1564 1565 1565 1565 1563 1562 1564 1564 1563 1561 1560 1559 1557
1525 1527 1530 1531 1533 1535 1537 1539 1541 1543 1544 1546 1547 1549 1551 1552 1554 1555 1555 1556 1557 1558 1558 1559 1559 1559 1560 1560 1561 1562 1563 1563 1563 1563 1561 1561 1562 1562 1561 1561 1560 1558 1558
1522 1526 1529 1531 1533 1535 1536 1538 1540 1542 1544 1545 1546 1548 1549 1551 1552 1553 1554 1555 1556 1556 1557 1558 1558 1558 1559 1559 1560 1560 1560 1561 1561 1561 1559 1559 1560 1560 1560 1560 1559 1557 1557
1521 1524 1527 1530 1531 1532 1535 1537 1539 1541 1542 1544 1545 1547 1548 1549 1550 1551 1552 1553 1554 1555 1556 1556 1557 1557 1557 1558 1558 1558 1558 1558 1559 1559 1558 1557 1558 1558 1558 1558 1557 1556 1555
1520 1522 1524 1526 1530 1531 1533 1535 1537 1538 1540 1542 1543 1545 1546 1547 1548 1549 1550 1551 1552 1553 1553 1554 1554 1555 1556 1556 1556 1556 1556 1557 1557 1556 1556 1555 1555 1556 1556 1556 1555 1554 1554
1517 1518 1521 1523 1525 1529 1532 1533 1534 1536 1537 1539 1540 1542 1544 1545 1546 1548 1549 1549 1550 1551 1551 1551 1552 1552 1553 1554 1554 1554 1554 1554 1554 1554 1553 1553 1553 1554 1554 1554 1554 1553 1552
1513 1515 1518 1520 1521 1524 1528 1530 1533 1535 1536 1537 1538 1539 1541 1543 1544 1545 1546 1546 1547 1548 1548 1549 1549 1550 1550 1551 1551 1551 1551 1550 1550 1551 1550 1550 1551 1552 1551 1551 1551 1550 1550
1508 1510 1512 1516 1518 1521 1522 1524 1528 1529 1532 1534 1536 1538 1539 1540 1541 1542 1543 1543 1544 1545 1545 1546 1546 1546 1546 1546 1547 1546 1547 1546 1547 1548 1547 1547 1548 1548 1547 1548 1547 1546 1546
1501 1503 1506 1509 1512 1516 1519 1519 1522 1525 1526 1529 1532 1533 1534 1536 1537 1539 1539 1539 1540 1541 1542 1542 1542 1542 1542 1542 1542 1542 1542 1541 1542 1543 1543 1543 1544 1544 1544 1544 1543 1542 1542
1494 1498 1500 1502 1506 1509 1513 1516 1516 1517 1520 1524 1526 1528 1529 1530 1532 1534 1534 1534 1535 1537 1537 1538 1538 1538 1538 1538 1537 1537 1537 1536 1537 1538 1538 1538 1538 1538 1538 1538 1538 1537 1537
1486 1488 1491 1494 1498 1501 1505 1509 1512 1513 1516 1517 1519 1521 1524 1526 1527 1528 1529 1530 1531 1531 1532 1533 1534 1534 1533 1532 1532 1532 1531 1532 1531 1532 1532 1531 1531 1532 1532 1531 1532 1532 1532
1482 1482 1485 1486 1489 1493 1497 1502 1506 1509 1511 1513 1513 1515 1516 1519 1522 1523 1523 1522 1523 1526 1528 1528 1527 1527 1528 1527 1526 1526 1526 1526 1525 1524 1525 1524 1523 1523 1524 1524 1526 1526 1526
1477 1477 1478 1481 1483 1485 1488 1492 1498 1502 1505 1509 1512 1511 1510 1511 1514 1517 1518 1518 1519 1519 1519 1520 1522 1522 1522 1521 1520 1520 1519 1517 1517 1517 1515 1515 1514 1514 1514 1515 1516 1518 1520
1471 1472 1473 1474 1478 1481 1484 1488 1491 1495 1499 1502 1504 1506 1509 1507 1507 1509 1511 1513 1515 1514 1513 1514 1513 1514 1514 1513 1514 1513 1511 1510 1510 1509 1508 1509 1508 1509 1509 1508 1508 1508 1510
1466 1466 1467 1469 1471 1476 1479 1482 1486 1487 1490 1494 1497 1501 1504 1505 1505 1504 1504 1505 1508 1508 1508 1509 1510 1510 1508 1509 1511 1506 1505 1506 1505 1502 1502 1502 1502 1502 1502 1503 1502 1501 1500
1460 1461 1462 1464 1466 1470 1475 1478 1481 1484 1487 1490 1493 1495 1498 1501 1502 1502 1500 1499 1502 1504 1503 1504 1505 1504 1503 1503 1503 1503 1499 1497 1494 1494 1494 1492 1491 1491 1491 1493 1494 1494 1493
1456 1457 1459 1461 1465 1468 1471 1475 1479 1482 1485 1487 1488 1490 1492 1495 1497 1496 1496 1497 1496 1497 1497 1498 1498 1498 1496 1494 1491 1494 1491 1481 1480 1479 1478 1479 1482 1481 1480 1483 1483 1484 1483
1454 1456 1455 1459 1462 1464 1466 1470 1474 1477 1479 1480 1483 1485 1486 1489 1489 1490 1490 1489 1489 1489 1487 1489 1489 1487 1489 1486 1487 1485 1481 1478 1476 1472 1472 1472 1473 1465 1475 1475 1475 1477 1476
1450 1452 1454 1454 1457 1459 1463 1467 1471 1474 1476 1477 1479 1481 1483 1483 1484 1484 1484 1484 1484 1482 1482 1481 1479 1479 1478 1477 1475 1475 1471 1470 1468 1467 1466 1464 1450 1470 1470 1471 1470 1469 1466
1446 1448 1449 1451 1452 1454 1460 1464 1468 1471 1472 1475 1477 1478 1479 1479 1479 1479 1478 1477 1476 1475 1473 1473 1473 1473 1471 1469 1467 1465 1462 1459 1458 1456 1445 1452 1460 1456 1460 1465 1464 1460 1460